Location: Newark
(44.2886°N, 4.8431°E)
Time: 14:52:26
(UTC+00:00)

ZACube-1 - Pass Details

Date: 26 November 2020
Orbit: 584 x 665 km, 97.6° (Epoch: 14 January)

Event Time Altitude Azimuth Distance (km) Brightness Sun altitude
Rises 16:33:01 0° 183° (S) 2,888 ? -5.3°
Reaches altitude 10° 16:35:18 10° 190° (S) 1,973 ? -5.7°
Maximum altitude 16:39:23 42° 261° (W) 867 ? -6.3°
Drops below altitude 10° 16:43:24 10° 334° (NNW) 1,946 ? -7.0°
Sets 16:45:39 0° 341° (NNW) 2,844 ? -7.4°
